Location: Newark
(44.3100°N, 0.7769°W)
Time: 04:47:28
(UTC+00:00)

Envisat - Visible Passes

Search period start: 19 November 2019 00:00
Search period end: 29 November 2019 00:00
Orbit: 764 x 766 km, 98.1° (Epoch: 18 November)

Date Brightness Start Highest point End Pass type
(mag) Time Alt. Az. Time Alt. Az. Time Alt. Az.
19 Nov 5.5 06:02:17 10° NE 06:06:26 25° E 06:10:35 10° SSE visible
19 Nov 3.4 17:18:10 10° SE 17:22:51 38° ENE 17:27:33 10° N visible
19 Nov 5.0 18:57:39 10° SSW 19:01:57 27° W 19:06:17 10° NW visible
20 Nov 6.4 05:27:41 10° ENE 05:29:15 11° E 05:30:48 10° ESE visible
20 Nov 3.6 18:20:00 10° S 18:24:59 59° W 18:30:02 10° NNW visible
21 Nov 4.5 06:27:17 10° NNE 06:32:07 42° E 06:36:55 10° S visible
21 Nov 2.9 17:43:12 10° SSE 17:48:14 65° ENE 17:53:16 10° N visible
21 Nov 5.8 19:24:36 10° SW 19:27:43 16° W 19:30:50 10° NW visible
22 Nov 5.9 05:51:21 10° NE 05:55:04 20° E 05:58:46 10° SE visible
22 Nov 3.7 17:07:14 10° SE 17:11:39 31° ENE 17:16:06 10° N visible
22 Nov 4.6 18:46:01 10° SSW 18:50:36 34° W 18:55:14 10° NNW visible
23 Nov 3.2 18:08:38 10° S 18:13:42 74° WSW 18:18:48 10° NNW visible
24 Nov 4.9 06:16:10 10° NNE 06:20:46 34° E 06:25:22 10° SSE visible
24 Nov 3.1 17:32:05 10° SE 17:36:59 52° ENE 17:41:55 10° N visible
24 Nov 5.5 19:12:36 10° SW 19:16:19 20° W 19:20:03 10° NW visible
25 Nov 6.0 05:40:36 10° NE 05:43:40 16° E 05:46:44 10° SE visible
25 Nov 3.9 16:56:22 10° ESE 17:00:29 26° ENE 17:04:36 10° N visible
25 Nov 4.2 18:34:27 10° S 18:39:16 43° W 18:44:07 10° NNW visible
26 Nov 3.8 06:41:22 10° NNE 06:46:23 58° E 06:51:23 10° S visible
26 Nov 2.9 17:57:20 10° SSE 18:02:25 88° ENE 18:07:33 10° NNW visible
26 Nov 6.2 19:40:29 10° WSW 19:42:08 11° W 19:43:47 10° WNW visible
27 Nov 5.3 06:05:07 10° NE 06:09:26 27° E 06:13:42 10° SSE visible
27 Nov 3.3 17:21:02 10° SE 17:25:47 42° ENE 17:30:33 10° N visible
27 Nov 5.2 19:00:47 10° SSW 19:04:56 25° W 19:09:08 10° NW visible
28 Nov 6.2 05:30:07 10° ENE 05:32:15 12° E 05:34:22 10° ESE visible
28 Nov 3.7 18:22:59 10° S 18:27:57 54° W 18:32:57 10° NNW visible
